This is the latest recevied weather packets stored in our database for station/object SV9TNF-52. If no packets are shown the sender has not sent any weather packets the latest 10 day(s).
| Time | Temp. | Humidity | Pressure | Rain* | Wind** | Luminosity | Snow |
|---|---|---|---|---|---|---|---|
| 1788236586 | 22.78° C | 75% | 1019.3 hPa | 0 mm | 4.92 m/s, 243° | - | - |
| 1788236287 | 22.78° C | 75% | 1019.3 hPa | 0 mm | 5.81 m/s, 229° | - | - |
| 1788235986 | 22.22° C | 74% | 1019 hPa | 0 mm | 5.81 m/s, 188° | - | - |
| 1788235687 | 22.78° C | 74% | 1019 hPa | 0 mm | 4.92 m/s, 228° | - | - |
| 1788235386 | 22.78° C | 74% | 1019 hPa | 0 mm | 4.47 m/s, 227° | - | - |
| 1788235086 | 22.78° C | 74% | 1019 hPa | 0 mm | 3.13 m/s, 206° | - | - |
| 1788234786 | 22.22° C | 73% | 1019 hPa | 0 mm | 5.36 m/s, 244° | - | - |
| 1788234486 | 22.22° C | 73% | 1018.3 hPa | 0 mm | 8.05 m/s, 184° | - | - |
| 1788234186 | 21.67° C | 72% | 1018.3 hPa | 0 mm | 6.71 m/s, 220° | - | - |
| 1788233886 | 21.67° C | 72% | 1018.3 hPa | 0 mm | 6.71 m/s, 165° | - | - |
| 1788233586 | 22.78° C | 72% | 1018.3 hPa | 0 mm | 9.83 m/s, 208° | - | - |
| 1788233286 | 22.78° C | 72% | 1018.3 hPa | 0 mm | 4.92 m/s, 288° | - | - |
| 1788232985 | 22.78° C | 72% | 1019 hPa | 0 mm | 4.02 m/s, 262° | - | - |
| 1788232686 | 21.67° C | 71% | 1019 hPa | 0 mm | 4.92 m/s, 229° | - | - |
| 1788232385 | 21.67° C | 70% | 1018.3 hPa | 0 mm | 5.81 m/s, 115° | - | - |
| 1788232086 | 21.67° C | 69% | 1018.3 hPa | 0 mm | 6.26 m/s, 170° | - | - |
| 1788231800 | 21.67° C | 68% | 1018.3 hPa | 0 mm | 8.05 m/s, 213° | - | - |
| 1788231485 | 21.67° C | 68% | 1018.3 hPa | 0 mm | 5.36 m/s, 239° | - | - |
| 1788231185 | 21.67° C | 68% | 1018.3 hPa | 0 mm | 6.26 m/s, 225° | - | - |
| 1788230885 | 21.67° C | 67% | 1018.3 hPa | 0 mm | 4.92 m/s, 202° | - | - |
| 1788230585 | 21.67° C | 67% | 1018.3 hPa | 0 mm | 6.71 m/s, 221° | - | - |
| 1788230284 | 22.22° C | 68% | 1018.3 hPa | 0 mm | 4.47 m/s, 245° | - | - |
| 1788229985 | 21.67° C | 67% | 1018.3 hPa | 0 mm | 4.02 m/s, 159° | - | - |
| 1788229684 | 21.67° C | 67% | 1018.3 hPa | 0 mm | 4.92 m/s, 246° | - | - |
| 1788229384 | 21.67° C | 68% | 1019 hPa | 0 mm | 6.26 m/s, 226° | - | - |
* Rain latest hour (hover to see other rain measurements)
** Current wind speed in m/s (hover to see current wind gust speed)